Theta_e
313 313 316 317 316 316 319 321 328 332 328 328 332 332 327 331 334 332 335 332 330 331 331 333 335 335 340 343 347 350 347 351 351 349 350 345 344 345 345 345 346 345 346 344 344 345 345 346 344 340 338 335 333 332 333 333 334 333 332 332 332 332 331 330 328 328 331 333 334 336 337 337 338 339 338 338 340 341 341 340 341 340 341 341 341 343 343 343 343 342 341 335 323 319 320 321 326
313 313 316 316 316 316 320 324 332 334 332 331 333 335 329 332 334 335 338 332 331 334 337 339 341 343 346 347 348 348 344 347 349 348 348 345 346 346 345 347 345 345 346 343 343 343 344 344 340 338 335 333 333 333 334 334 334 333 333 333 333 331 328 328 330 332 334 336 336 336 337 337 338 339 339 339 340 341 340 340 340 340 341 340 341 343 343 343 342 341 339 329 319 321 323 323 325
313 313 315 314 314 317 324 327 330 327 325 327 332 337 329 332 337 335 334 332 336 338 341 342 343 344 346 350 347 347 346 346 348 347 347 347 347 346 348 347 344 346 345 343 342 342 342 341 338 335 333 333 333 333 334 334 334 333 333 331 330 328 327 328 331 334 335 336 337 337 339 338 337 338 339 340 340 340 340 340 339 340 340 340 342 343 343 343 342 341 336 325 320 322 324 325 325
316 315 314 313 314 322 331 330 330 324 321 327 328 333 336 335 334 330 329 332 337 339 340 341 344 341 344 352 347 348 349 347 348 347 348 347 346 348 348 347 346 347 345 343 341 341 340 338 336 334 333 333 334 334 334 334 334 333 332 329 328 326 327 328 329 332 333 336 338 337 338 338 338 339 339 338 338 340 340 340 339 338 339 340 342 343 343 343 342 342 335 323 321 322 323 325 325
317 314 312 314 317 323 327 325 329 324 322 332 327 331 342 334 330 332 331 331 334 338 338 341 347 343 346 350 345 348 348 348 349 347 348 347 348 348 348 347 347 346 344 342 340 340 339 339 337 334 333 333 334 334 334 335 334 333 331 329 327 326 326 326 327 331 334 337 339 338 339 338 339 340 340 338 337 338 338 339 338 336 339 340 341 343 344 343 343 342 334 323 322 324 324 326 326
314 313 314 316 316 318 323 322 325 323 323 332 328 332 338 329 330 337 336 334 335 337 338 342 346 346 353 349 346 350 348 348 349 347 347 346 348 347 348 347 347 346 343 341 340 340 339 339 336 333 333 333 334 334 335 334 334 334 331 329 327 326 326 326 328 333 337 338 339 339 339 339 339 339 339 338 337 337 337 338 338 337 338 340 341 343 343 343 343 342 333 322 325 327 327 328 328
313 316 321 321 320 320 326 325 323 324 324 326 328 329 326 326 332 337 339 336 335 338 340 344 346 350 352 346 348 351 348 348 348 348 347 346 347 347 348 347 348 346 343 341 340 339 339 337 334 332 334 333 334 334 334 334 334 334 332 329 327 326 326 328 332 336 339 339 339 339 339 339 339 339 337 336 336 336 336 336 336 336 336 339 341 343 343 343 343 342 331 322 326 328 329 329 328
316 319 324 327 327 325 327 326 324 325 324 322 323 323 323 328 333 338 338 336 336 339 341 343 347 356 352 349 354 351 347 348 347 348 347 346 346 347 348 348 347 346 343 341 339 339 337 335 333 333 334 333 334 334 334 334 334 334 332 329 326 326 325 329 335 338 339 340 339 339 338 338 338 337 336 336 335 335 336 336 336 337 338 340 342 343 343 343 343 341 330 323 326 327 329 329 329
317 319 323 326 326 324 326 326 323 323 325 324 320 322 328 330 333 337 338 339 339 342 345 344 347 353 351 355 357 348 348 348 347 348 346 346 346 347 348 347 347 345 343 340 338 338 336 334 332 333 333 333 334 334 334 334 334 334 332 329 326 326 324 327 332 335 336 338 338 338 338 338 338 336 337 338 338 338 339 339 340 340 341 341 342 343 342 342 340 335 327 324 324 325 327 329 329
320 320 323 326 325 323 322 322 324 324 325 325 320 323 331 331 333 337 340 340 340 348 349 344 347 349 351 357 353 347 349 347 346 346 345 346 345 347 347 347 346 344 342 339 338 338 335 333 332 333 333 333 334 334 334 334 334 334 333 330 326 325 324 325 327 329 330 332 333 334 336 338 338 338 338 339 339 340 340 341 342 342 342 342 342 342 341 340 335 330 328 326 324 325 326 327 329
323 322 323 326 324 319 316 318 322 324 322 322 323 326 331 332 334 337 340 339 343 351 346 344 349 350 354 355 350 349 349 347 346 345 345 347 346 346 346 346 345 343 341 338 340 338 335 333 331 332 333 333 334 334 334 334 334 334 334 330 327 325 324 324 325 325 325 327 329 333 336 338 339 338 338 338 339 339 340 341 342 342 342 342 342 341 341 337 331 327 325 324 323 323 325 326 328
324 324 323 324 323 319 317 318 320 325 324 324 328 329 330 332 336 339 339 340 345 346 341 344 346 351 360 355 351 350 349 348 346 346 346 347 347 347 346 345 344 343 341 339 341 338 335 333 331 332 333 333 333 334 334 334 334 334 334 331 327 325 325 325 325 325 325 327 330 334 336 336 336 336 337 338 338 339 339 340 341 342 341 341 341 340 338 333 329 324 319 317 319 321 323 326 328
323 326 324 322 323 322 319 318 321 327 327 326 330 328 330 334 335 337 339 344 344 341 338 341 343 352 361 353 350 350 350 349 346 347 347 348 347 347 346 344 344 343 341 341 341 338 335 333 332 333 332 333 333 334 334 334 334 334 334 332 328 326 326 326 326 326 324 327 331 332 332 330 330 332 336 338 338 338 339 340 340 341 341 341 340 337 334 333 332 329 324 320 318 319 321 324 326
323 324 323 321 323 323 320 320 320 321 323 326 328 328 331 333 332 333 339 346 343 337 336 338 343 349 352 350 351 351 351 349 346 347 347 348 347 347 346 344 344 343 342 342 341 338 336 333 333 334 332 333 333 333 334 334 334 334 334 333 329 326 327 327 327 327 325 328 329 328 327 325 326 329 333 336 337 337 338 338 339 339 340 340 338 336 335 335 334 333 332 329 325 323 323 324 324
322 323 323 322 322 321 319 319 319 318 321 324 326 329 332 330 331 332 334 342 341 336 337 339 340 337 342 351 352 348 350 349 348 347 347 347 347 347 346 345 345 343 342 342 340 338 336 334 333 333 333 332 333 334 334 334 334 334 334 333 331 327 327 328 328 328 327 329 328 327 327 325 325 328 329 329 330 332 334 335 336 337 337 338 337 336 336 336 335 335 335 334 333 330 329 327 327
321 324 325 323 320 318 318 321 320 318 320 322 325 330 332 329 330 331 330 337 338 335 340 341 335 333 340 347 345 345 348 350 349 348 348 347 347 347 347 346 344 343 343 342 340 338 337 336 334 333 334 333 334 335 335 335 335 334 334 334 332 328 327 328 329 329 328 329 330 331 331 328 326 326 325 324 324 324 325 328 329 330 332 335 335 335 335 334 333 333 333 333 334 334 334 332 332
318 322 325 323 318 316 321 323 320 319 320 322 325 330 332 329 329 330 330 336 341 341 347 345 340 342 346 345 340 344 349 350 349 348 347 347 347 347 348 347 344 344 344 342 340 339 338 336 335 335 336 335 335 336 335 335 336 336 335 335 333 329 327 328 329 330 331 330 330 332 331 330 329 327 323 322 323 322 322 323 323 323 325 329 330 330 328 327 327 326 327 327 328 330 332 331 330
319 324 321 319 319 319 324 325 322 321 322 322 325 330 332 329 330 332 333 340 345 350 356 353 351 350 347 345 342 347 351 349 348 348 348 347 347 348 349 348 345 345 344 343 341 340 339 337 336 337 339 338 336 337 336 336 338 338 335 335 335 331 329 328 330 332 334 334 331 331 331 330 332 331 328 325 324 325 326 326 324 323 323 324 324 325 324 324 325 326 327 324 322 324 327 329 329
323 327 320 322 326 321 320 321 321 320 321 322 325 329 329 329 332 334 337 344 345 348 356 356 361 356 346 346 346 349 350 348 349 348 348 348 347 348 349 349 346 344 344 343 342 341 339 337 338 338 340 340 337 337 336 336 337 337 335 335 336 333 331 329 329 333 335 336 333 332 331 332 334 336 335 334 332 331 331 332 331 328 326 326 326 327 328 330 332 333 332 329 327 328 331 333 334
322 321 320 326 325 320 319 318 319 319 321 323 326 329 327 328 333 332 336 346 346 347 353 354 364 362 349 348 348 350 350 349 349 348 348 348 348 349 348 349 347 344 344 344 343 341 339 338 340 339 340 340 338 338 337 336 335 336 334 334 335 333 332 329 329 331 333 335 334 334 334 336 337 338 339 339 339 338 337 337 337 335 331 329 329 332 333 334 336 337 336 334 334 334 335 335 335
318 318 323 325 319 319 320 318 319 319 320 324 328 330 329 331 334 335 337 344 346 346 348 346 356 358 348 349 349 349 350 349 349 348 348 348 348 348 348 348 347 345 343 343 343 342 340 340 340 340 340 339 339 339 338 336 335 335 334 334 334 332 331 329 328 328 331 333 334 335 338 339 340 340 340 341 340 340 340 339 339 338 336 334 332 334 336 337 337 338 338 338 338 337 336 335 335
318 320 323 322 318 318 319 320 321 320 321 325 330 330 331 334 338 341 338 339 342 342 341 337 346 350 347 349 349 349 350 350 349 348 348 348 348 348 348 348 347 344 343 343 343 342 340 340 340 340 340 339 338 338 337 336 334 334 333 332 332 332 331 329 329 328 329 331 333 336 338 339 340 341 341 341 341 340 340 340 339 339 338 338 336 336 338 338 338 338 338 338 338 338 338 337 337
319 322 322 320 318 318 318 320 321 322 323 327 329 329 333 337 341 342 337 335 338 338 337 338 344 346 346 347 349 351 351 350 349 348 348 348 348 348 348 348 347 344 343 342 342 342 340 338 339 340 340 338 338 338 337 335 333 330 330 331 330 330 330 329 329 328 329 331 334 337 339 340 340 341 341 341 341 341 341 340 340 340 339 339 338 338 338 338 338 338 338 338 338 338 338 338 338
319 322 323 320 318 318 318 318 319 320 324 328 329 331 335 338 339 340 337 335 338 341 342 345 347 346 346 347 349 349 349 349 349 348 348 347 348 347 347 347 346 344 342 341 341 341 340 337 337 339 339 338 338 338 337 335 332 329 329 330 330 329 329 329 329 329 331 334 337 339 340 340 341 341 341 341 341 341 341 341 341 340 339 339 338 338 338 338 338 338 338 338 338 338 338 338 337
320 320 321 319 318 319 317 319 319 319 323 328 331 333 334 336 336 338 338 334 340 348 350 351 351 349 348 348 348 347 348 348 348 348 348 348 348 347 346 346 345 344 342 340 339 339 339 337 336 337 338 338 338 338 337 337 333 330 329 329 329 329 329 330 331 333 335 337 339 340 340 341 341 341 342 342 342 341 341 341 340 340 339 339 338 338 338 338 338 338 338 338 338 338 337 338 337
321 318 319 319 319 318 319 323 323 322 326 329 332 332 331 333 334 338 337 335 344 350 352 353 352 351 350 349 348 348 347 348 348 348 348 348 348 346 346 346 345 345 343 340 338 337 337 337 337 337 337 338 338 338 338 338 336 332 329 329 329 328 329 331 334 336 338 340 340 341 341 341 342 342 342 342 342 341 341 341 340 339 339 339 339 338 339 339 338 338 338 338 338 338 338 338 338
320 319 318 319 319 319 320 323 324 327 329 329 331 332 334 334 334 338 334 338 351 355 355 352 352 352 351 350 348 348 347 348 348 348 348 347 347 347 346 346 346 346 344 341 338 336 336 336 336 336 337 337 337 339 340 340 339 336 330 329 329 329 330 332 336 339 340 341 341 342 342 342 342 342 342 342 342 341 341 341 341 340 339 339 339 339 339 339 339 338 338 338 338 337 337 337 338
319 319 319 319 319 320 322 321 324 329 328 329 332 333 335 333 333 336 336 345 354 359 357 352 352 352 351 350 349 348 348 348 348 348 348 347 347 347 346 346 346 346 345 342 337 335 336 337 336 336 336 338 339 341 342 343 343 341 336 331 331 332 332 333 337 340 341 341 342 342 342 342 342 342 342 342 342 341 341 341 341 341 340 340 340 340 340 339 339 338 338 338 338 338 337 338 338
318 319 319 320 322 323 323 321 323 327 329 332 333 332 334 334 334 336 345 353 356 357 357 353 353 352 351 351 349 349 349 348 348 348 348 347 347 347 346 347 346 346 345 343 340 337 339 341 339 337 337 339 342 343 343 343 343 344 340 335 335 336 336 337 339 341 342 342 343 342 343 343 343 343 343 343 342 342 341 342 341 341 341 340 340 340 340 340 339 339 339 339 338 338 338 338 338
318 319 320 322 324 326 323 320 323 323 327 335 332 328 332 337 334 332 345 356 357 357 358 354 353 352 351 351 350 350 349 348 348 347 348 347 347 347 346 347 346 346 345 345 344 342 342 344 343 341 340 341 343 343 343 343 343 343 342 340 340 341 341 341 341 342 342 342 343 343 343 343 343 343 343 343 342 342 342 342 341 341 341 341 341 340 340 340 340 340 340 339 339 338 338 338 338
322 318 322 324 320 325 326 321 323 321 326 335 330 324 329 334 331 332 346 356 358 359 359 354 353 353 351 351 350 350 349 348 348 347 348 347 347 347 346 347 346 346 346 346 346 345 345 345 345 344 342 342 343 344 343 343 342 342 342 342 342 342 342 342 342 341 342 342 342 342 343 343 343 343 343 343 342 342 342 342 341 341 341 341 341 340 340 340 340 341 340 339 339 338 338 338 338
326 316 320 326 318 323 329 322 324 323 325 331 325 322 326 330 330 333 347 354 356 358 357 354 354 353 352 352 350 351 350 348 347 347 347 347 347 347 346 347 346 347 346 346 347 346 346 345 345 345 344 343 343 343 343 343 342 341 342 342 342 342 342 342 342 341 342 343 343 342 343 343 343 343 343 343 342 342 342 342 342 341 342 341 341 341 341 341 341 340 340 339 339 339 338 339 339
332 320 318 324 320 321 326 323 324 324 327 330 324 324 329 330 332 334 343 354 357 357 358 355 354 354 352 352 351 351 350 349 348 347 347 346 346 346 347 346 346 347 346 346 347 346 346 346 346 346 345 344 343 343 343 343 343 342 342 341 341 342 342 342 342 342 342 343 343 343 343 343 343 343 343 343 342 342 342 342 342 342 342 342 342 341 341 341 341 340 340 340 340 339 338 337 337
330 328 323 323 322 319 321 324 325 324 328 331 327 327 329 330 336 337 340 351 356 357 357 355 355 354 353 352 351 352 351 351 350 347 346 346 346 346 346 346 346 347 346 346 346 346 346 346 346 345 345 345 345 344 343 343 343 342 342 342 342 342 342 343 342 343 343 343 343 343 343 343 343 343 343 343 343 343 342 342 342 342 342 342 342 342 341 341 341 340 340 339 339 338 337 336 335
320 323 323 320 321 320 318 322 325 324 325 329 328 327 327 327 335 342 340 344 354 356 353 354 354 353 353 353 352 352 351 351 349 346 346 346 346 346 346 346 346 346 346 346 346 346 346 346 346 346 345 345 345 345 343 343 343 342 343 342 342 342 343 343 343 343 343 344 344 343 343 344 343 343 343 343 343 343 343 343 342 343 343 342 342 342 341 341 340 339 339 338 337 336 335 334 334
319 320 318 316 318 318 319 321 323 323 322 326 328 327 329 325 328 340 340 339 346 348 348 351 353 353 353 352 351 351 351 350 347 345 346 346 346 346 346 346 346 346 346 346 345 345 345 346 346 346 345 345 345 344 343 344 344 343 343 343 343 343 343 343 343 344 344 344 344 343 344 344 344 344 344 343 343 343 343 343 343 343 343 342 342 341 341 340 339 338 338 337 336 335 333 332 333
319 318 317 318 317 317 320 322 323 323 322 326 328 325 328 325 327 337 339 339 341 341 344 348 350 351 351 351 350 349 350 348 344 344 345 345 345 345 345 346 346 346 346 345 345 345 345 346 345 346 345 345 345 343 343 344 344 344 344 344 344 343 343 344 344 344 344 344 344 344 344 344 344 344 344 344 343 343 343 343 343 342 342 341 341 340 339 339 339 338 337 337 335 334 332 332 331
318 318 318 318 317 319 321 322 322 320 318 324 327 325 326 324 329 339 340 340 341 339 341 344 345 347 347 348 348 347 348 346 346 345 343 343 344 344 344 345 345 346 346 345 345 345 345 346 345 346 345 345 344 343 344 344 344 344 345 344 343 343 344 344 345 345 344 345 344 344 344 344 344 344 344 344 343 343 343 343 342 340 340 338 338 338 337 337 336 336 336 335 334 333 330 330 330
319 319 318 317 319 321 322 323 322 319 320 325 327 325 327 327 329 336 340 340 339 338 338 339 340 343 343 344 345 346 346 347 350 349 343 341 342 343 344 344 345 345 346 345 345 345 345 346 346 345 346 345 344 344 344 344 344 345 345 344 344 344 345 344 345 345 345 345 344 345 344 344 345 344 344 344 343 344 343 342 339 338 337 335 335 335 334 334 332 332 331 330 330 331 328 328 328
319 320 317 317 319 318 320 325 323 321 319 322 326 325 329 335 333 334 336 336 337 338 339 338 338 340 339 340 342 344 346 347 350 349 344 341 340 342 343 344 345 345 346 345 345 346 345 346 346 346 346 345 345 345 345 345 345 346 345 345 345 345 345 345 345 345 345 345 345 345 345 345 345 344 343 343 343 343 341 339 337 336 334 333 332 331 331 329 326 326 328 327 328 328 328 328 325
321 321 318 318 321 319 319 322 322 323 320 320 323 324 333 344 341 339 335 334 337 336 340 342 339 338 336 337 339 342 345 346 347 348 346 342 340 341 342 343 345 345 345 346 345 346 346 346 346 346 346 346 346 346 346 346 346 346 345 345 345 344 345 345 345 344 345 345 345 345 345 344 344 342 342 342 342 341 338 338 337 334 332 331 331 329 327 323 319 321 323 324 326 328 329 329 323
321 322 321 321 323 323 321 320 320 323 321 320 317 317 330 344 341 336 333 336 340 334 337 341 338 338 338 340 340 340 344 345 347 347 345 342 340 340 342 343 344 345 346 346 346 346 346 346 346 346 346 346 346 347 347 347 346 346 345 345 344 343 344 344 344 344 344 345 345 345 344 344 343 341 341 342 341 339 337 337 335 331 330 330 327 323 317 313 313 315 315 316 319 321 325 324 317
320 324 324 322 321 321 320 318 317 318 317 316 318 318 323 332 337 333 330 339 345 335 336 339 336 338 341 341 339 339 341 343 347 347 344 342 340 340 342 342 344 345 345 346 346 346 346 347 347 346 347 346 347 347 347 347 346 346 345 345 344 344 343 343 344 344 344 344 344 344 344 343 342 341 341 340 338 337 335 334 331 328 325 322 316 311 309 309 310 311 311 313 313 312 314 315 312
322 327 325 322 322 320 322 320 315 318 317 316 325 323 316 321 328 327 328 342 352 346 342 341 336 336 339 342 341 342 341 341 346 346 345 343 340 340 341 342 344 344 345 346 346 346 346 347 347 347 347 347 347 347 348 348 347 346 344 343 343 344 344 344 344 344 343 344 343 343 343 342 342 341 339 336 333 333 332 331 329 322 315 311 309 308 309 310 310 310 311 312 311 310 311 311 312
327 326 321 322 324 322 323 321 320 322 317 317 326 320 314 323 329 328 335 345 349 352 347 343 340 335 336 341 342 344 343 341 342 344 345 343 340 340 341 342 343 344 345 346 346 346 346 347 347 347 347 347 348 348 348 347 345 343 341 339 339 342 343 343 343 343 343 343 343 342 341 340 341 338 335 332 331 330 330 330 325 315 309 308 309 309 310 310 311 311 312 312 312 311 311 312 312
323 319 320 324 326 328 327 322 324 327 319 318 323 316 313 325 330 330 335 336 336 341 340 338 339 334 333 337 340 343 345 343 342 343 344 342 339 341 341 342 343 344 345 345 346 346 346 347 347 347 348 347 348 348 347 347 344 340 339 338 337 339 341 342 342 342 342 341 341 339 338 338 337 334 332 330 328 326 325 323 316 310 309 309 309 310 310 311 311 311 312 312 312 312 312 313 313
317 318 320 322 327 334 340 338 329 323 322 323 324 317 314 320 327 329 326 324 328 331 331 331 331 330 330 333 337 342 344 344 344 344 344 341 339 341 342 342 343 343 344 344 345 346 345 346 347 347 348 347 348 348 346 347 346 340 337 336 335 335 340 341 340 339 338 337 337 337 336 336 335 332 331 327 321 317 315 312 310 309 309 309 309 310 310 311 311 312 312 312 312 313 313 313 313
317 325 321 316 326 329 335 341 327 318 323 326 325 320 314 315 319 323 323 322 325 326 327 329 329 331 330 328 333 340 343 344 346 347 347 343 341 342 341 342 343 343 344 344 344 345 345 345 346 346 346 347 347 347 346 347 347 343 339 337 334 333 339 341 339 339 338 336 337 337 335 333 332 331 327 320 313 310 310 309 310 310 310 310 311 311 311 311 312 312 312 312 312 312 313 313 313
319 328 323 315 324 324 326 334 325 321 325 321 321 320 314 317 318 318 322 322 322 324 327 331 333 334 334 330 332 341 345 345 349 350 348 346 344 342 340 341 342 342 343 344 344 344 344 344 345 345 344 345 345 345 346 346 346 345 343 341 337 335 339 340 340 340 338 338 338 335 332 330 330 328 320 312 308 309 310 310 310 310 310 311 311 311 312 312 312 313 312 312 313 313 313 313 313
318 323 323 317 323 323 326 333 323 320 324 317 319 319 315 321 320 318 323 324 323 325 326 330 334 336 338 336 338 345 348 347 352 352 347 347 345 340 340 340 341 342 342 343 344 343 344 343 343 343 343 344 344 344 345 345 345 345 343 342 341 340 340 339 340 339 339 339 337 333 331 330 330 327 316 308 308 309 309 310 310 310 311 311 312 312 312 312 313 313 313 313 314 313 313 313 314
319 323 323 320 326 322 322 330 323 318 323 321 318 316 317 321 320 321 324 324 322 320 321 322 325 332 338 339 343 349 351 349 352 353 348 347 343 339 340 341 341 343 342 343 343 342 343 343 343 343 343 343 343 343 343 343 344 343 340 338 338 339 339 339 339 339 339 337 334 334 334 332 331 326 314 308 308 309 309 310 310 311 312 312 312 312 312 313 313 314 314 314 314 314 314 314 314
319 322 322 318 324 326 322 326 327 322 323 325 319 318 324 322 321 325 322 320 320 317 318 318 316 324 333 338 345 351 352 350 352 354 351 346 342 339 340 340 341 342 341 341 341 341 342 341 342 342 341 341 341 341 341 342 343 342 338 336 336 336 336 337 337 337 337 335 333 333 332 331 329 323 312 308 309 309 310 311 311 311 312 312 312 313 313 313 314 314 315 315 315 315 315 315 315
325 323 321 319 319 328 325 320 327 326 321 327 322 317 325 321 318 326 321 318 320 316 316 319 316 318 324 331 344 352 352 349 350 353 351 347 342 340 340 340 340 340 339 340 340 339 339 339 338 337 336 336 333 331 331 332 335 338 338 336 337 336 335 335 335 334 333 332 331 330 328 327 324 317 311 308 309 310 311 311 311 312 312 312 313 313 314 314 314 315 315 315 315 315 315 316 316
328 321 321 321 316 326 327 318 329 330 322 331 328 317 324 324 321 328 325 319 320 317 316 318 317 316 317 323 336 349 352 348 348 349 347 344 341 339 341 340 339 339 339 339 339 338 338 337 336 336 337 337 333 330 329 326 327 331 335 336 335 336 335 335 335 334 332 331 330 327 323 321 318 313 311 310 310 311 311 311 312 312 312 313 313 313 314 314 315 315 315 315 315 314 315 315 315
322 319 320 321 315 322 326 319 326 326 319 329 332 323 324 325 323 324 324 321 319 317 317 317 317 317 316 317 325 339 349 351 351 349 345 344 340 338 340 339 339 339 339 339 339 337 337 336 336 338 338 337 335 334 334 333 331 330 332 335 335 334 334 334 334 334 331 330 330 325 320 317 315 313 311 311 311 311 311 311 312 312 313 313 314 314 314 315 315 315 315 314 315 314 314 314 314
325 323 324 328 324 320 321 320 323 323 322 327 331 329 327 328 328 323 320 320 319 317 317 317 317 316 315 316 318 325 335 343 348 350 348 345 339 336 338 338 338 339 338 338 337 336 335 334 336 337 335 332 333 334 335 336 336 334 331 332 333 332 332 331 332 332 330 329 328 323 318 316 315 313 311 310 311 311 311 312 312 312 313 313 314 314 315 315 315 315 315 314 314 314 314 313 313
327 329 326 328 328 321 318 320 321 323 328 331 330 330 330 332 331 324 318 318 317 317 317 316 314 314 314 315 316 318 321 326 333 339 343 343 337 334 336 338 337 337 336 336 335 334 334 333 334 334 331 329 331 333 334 336 336 334 331 330 330 329 328 327 327 328 328 326 323 319 316 316 314 311 310 310 311 311 312 312 313 313 314 314 315 315 315 315 314 314 313 312 312 312 312 312 312
323 329 323 320 325 325 323 324 325 327 328 330 329 328 330 329 323 321 318 315 315 314 313 314 313 313 314 314 315 315 316 317 319 323 331 334 331 329 332 334 335 334 334 333 333 332 332 332 332 331 330 329 330 331 333 333 331 329 326 325 325 324 324 323 322 322 321 319 317 316 315 314 312 310 311 311 312 313 313 313 313 314 314 314 315 315 315 314 312 312 311 310 310 311 311 311 311
Wind_Speed
12 12 9 9 10 6 3 3 1 2 1 1 3 2 2 3 3 2 2 1 1 1 1 2 5 5 4 4 6 6 4 3 4 4 3 3 4 10 10 13 21 21 21 18 16 15 13 14 14 14 14 13 13 12 12 12 11 10 10 10 11 11 11 12 12 13 13 14 14 14 13 13 13 13 13 13 13 12 11 11 10 10 9 8 8 9 9 11 11 12 11 8 7 10 12 12 13
9 9 8 9 7 4 1 3 2 3 3 2 3 3 3 2 2 3 3 2 2 2 3 5 6 6 6 7 7 5 3 2 3 3 2 5 7 7 12 20 24 22 21 19 18 16 15 15 14 15 14 14 14 13 13 12 11 11 11 11 11 11 11 12 12 12 13 13 13 13 12 12 12 12 12 12 12 11 11 10 10 10 9 8 8 9 9 11 12 12 10 7 9 12 14 15 14
7 7 8 7 4 2 1 3 2 1 3 2 4 3 2 1 3 4 5 4 5 5 6 6 6 5 5 6 3 2 2 2 4 3 3 8 6 9 19 23 24 23 21 20 18 17 16 15 15 15 15 15 14 14 13 12 11 10 10 10 10 10 10 11 11 12 12 13 13 12 12 11 11 12 12 11 10 11 10 9 9 9 8 8 8 8 9 11 12 12 9 8 11 12 13 14 14
4 4 5 3 2 3 3 3 2 2 1 2 3 4 3 3 4 3 4 5 7 5 4 4 3 2 3 4 1 2 2 2 4 3 4 6 6 14 22 22 23 23 21 20 18 17 17 16 16 16 16 15 14 14 12 11 10 9 8 8 9 9 9 10 10 11 12 13 13 12 11 11 11 11 10 10 10 10 10 9 9 8 7 8 8 8 8 10 11 11 9 9 11 11 12 12 12
2 2 3 3 2 2 2 1 2 2 3 3 2 5 4 3 3 4 2 4 4 2 2 4 2 2 3 3 1 2 0 1 3 2 4 6 10 18 21 21 22 22 21 20 18 18 17 16 16 16 16 15 14 13 11 10 9 8 8 8 8 8 9 9 10 11 11 11 12 11 11 11 11 9 8 8 9 9 8 8 7 6 6 7 7 7 8 9 10 11 9 9 10 10 10 10 10
2 3 4 4 2 0 2 1 1 2 5 5 3 5 4 3 5 6 5 3 3 3 3 4 4 2 3 2 2 2 2 2 4 4 7 10 15 20 20 19 20 21 21 20 19 19 17 16 16 16 15 14 13 11 10 9 8 8 7 7 7 8 8 9 9 11 11 11 11 11 10 10 9 8 6 6 7 7 7 7 5 4 5 6 6 6 7 9 10 10 9 9 9 9 9 9 9
3 3 3 4 1 1 3 2 3 4 4 5 4 4 3 3 6 8 8 4 5 5 5 3 5 6 2 1 1 3 2 3 4 6 12 15 19 20 19 19 18 19 20 20 19 18 17 16 16 15 14 13 12 11 10 9 8 7 7 7 7 7 8 9 10 11 11 11 10 10 9 9 8 7 6 6 6 6 6 5 5 4 4 6 5 5 7 9 9 8 8 9 9 8 7 7 8
4 2 1 3 1 2 2 2 4 3 4 4 3 4 3 5 7 8 7 3 3 2 4 2 4 6 1 1 1 4 5 1 4 9 15 17 22 21 20 20 19 19 20 20 18 18 17 16 16 15 13 13 12 11 10 9 8 7 7 7 7 7 8 9 10 11 11 10 10 9 9 9 7 6 6 6 6 6 5 5 4 4 5 6 6 7 9 9 8 6 7 8 8 6 6 6 6
3 2 0 2 1 2 1 3 4 3 5 6 3 5 3 6 6 7 6 3 4 3 2 1 3 5 1 4 2 3 5 2 7 12 15 19 23 22 21 21 19 20 20 19 19 18 18 17 16 15 14 13 13 12 10 9 8 7 7 7 7 7 7 9 9 10 10 9 9 8 9 9 7 7 7 7 7 7 7 6 6 6 6 7 7 9 9 8 6 5 6 6 7 6 4 4 4
3 2 1 2 1 2 3 3 4 3 5 6 4 5 4 6 4 6 7 4 4 3 1 1 6 4 3 3 1 2 2 4 11 14 15 21 23 21 21 19 18 20 21 20 19 18 18 17 16 15 14 13 12 11 10 9 8 7 6 7 7 7 8 8 8 8 8 8 8 8 9 9 7 7 7 7 8 7 8 8 7 7 7 8 9 9 8 7 6 5 4 4 4 5 3 2 2
3 2 2 2 2 2 3 4 5 5 6 4 2 4 5 6 6 6 6 5 2 3 4 5 6 4 3 2 1 1 3 7 13 15 17 22 21 20 19 17 17 18 20 20 18 17 17 17 16 15 14 13 12 11 9 8 8 7 7 7 7 7 8 7 7 7 7 8 8 9 8 7 7 7 6 6 7 7 8 8 8 8 8 9 8 8 7 5 5 4 3 2 2 4 3 1 1
2 1 3 2 1 2 2 4 6 6 7 3 0 3 5 7 8 6 7 7 3 5 5 4 6 5 4 1 1 1 6 8 12 16 18 21 20 20 18 15 16 16 18 18 16 16 16 16 16 14 13 13 11 10 9 9 8 7 7 7 7 8 8 7 7 7 8 8 9 8 7 6 6 6 6 6 7 7 7 7 8 8 8 8 6 6 6 4 5 5 4 3 2 2 2 1 0
1 2 4 1 3 2 2 4 5 3 4 3 3 3 5 6 6 7 9 7 5 6 4 4 6 6 4 1 0 4 8 9 13 18 20 21 20 19 17 15 16 16 18 17 16 17 16 16 16 15 14 12 11 10 9 9 8 8 8 8 8 8 8 7 7 7 8 8 8 7 6 5 5 6 7 6 6 6 7 6 6 6 6 6 5 5 4 4 5 5 5 5 3 2 1 1 0
3 3 4 1 1 1 3 3 4 2 2 4 3 4 5 4 3 5 7 9 5 4 2 2 6 5 3 2 1 4 9 13 16 19 21 20 19 19 16 15 16 17 18 17 17 17 17 16 16 15 14 13 12 11 10 9 9 8 8 8 8 8 8 8 8 8 8 8 7 7 7 6 6 7 7 6 5 6 6 6 5 5 5 4 4 4 3 3 3 3 4 4 3 2 1 1 1
4 1 4 0 3 3 2 3 4 2 3 2 2 5 5 2 5 5 5 9 6 4 2 2 3 1 3 7 4 7 13 19 20 21 22 20 19 19 16 15 15 17 18 17 18 17 17 16 16 15 14 14 14 13 12 11 9 9 9 9 9 9 10 10 9 9 8 8 8 7 7 6 6 6 6 6 6 5 5 5 4 4 4 3 3 2 2 2 2 2 2 2 2 2 1 2 2
3 3 4 2 2 3 1 2 2 2 2 2 1 5 7 3 6 5 3 7 4 2 3 2 1 1 4 5 5 14 21 23 23 23 22 19 19 18 16 15 15 17 17 17 18 17 17 17 17 16 15 15 14 13 12 11 10 10 9 9 9 10 10 11 11 10 9 8 8 7 7 7 7 6 6 6 6 5 5 4 4 3 3 3 2 1 2 2 2 3 3 3 3 3 3 3 4
2 3 2 3 2 2 2 3 1 1 3 2 3 5 7 2 4 2 1 7 6 3 2 1 2 2 4 3 5 22 27 26 26 24 21 19 19 18 17 16 15 17 17 17 18 18 18 18 17 16 15 15 14 13 13 12 10 10 10 10 10 10 10 11 11 11 9 9 8 7 7 7 7 6 6 6 6 5 5 5 4 3 3 2 2 1 2 3 3 4 4 4 4 3 3 4 4
2 3 1 3 3 2 3 4 3 3 4 5 6 6 11 8 5 2 3 6 4 3 3 2 3 5 4 4 14 27 27 26 26 24 21 19 19 18 19 18 16 17 17 17 19 19 20 19 18 17 15 15 14 14 13 12 11 11 11 10 10 10 10 10 11 10 9 9 8 7 7 7 7 6 6 6 6 5 5 5 4 4 3 2 2 1 1 2 3 4 4 4 3 3 3 4 4
2 3 1 3 4 3 3 4 5 4 4 8 6 5 10 10 8 5 4 5 5 3 2 2 4 5 8 10 20 25 25 26 24 23 21 19 19 18 19 21 19 19 19 19 20 21 21 20 20 19 17 16 15 15 14 14 14 13 12 11 11 11 10 10 10 10 9 9 8 8 7 6 6 6 6 6 5 4 4 4 4 3 3 2 2 2 2 2 3 4 4 5 5 5 5 5 5
1 2 2 5 4 4 5 3 5 7 5 10 7 4 5 6 7 3 5 7 5 4 4 3 3 3 7 10 16 21 24 24 23 22 19 18 19 18 20 22 22 21 21 21 20 21 22 21 21 20 18 18 17 17 16 15 15 14 13 13 12 11 11 11 11 10 10 10 9 8 7 6 6 5 5 4 4 3 2 2 2 2 2 2 2 2 2 4 4 5 5 5 5 5 5 5 6
1 2 4 6 2 5 7 8 6 5 6 10 8 6 4 5 4 3 8 8 3 6 8 8 10 10 11 11 14 19 20 21 22 21 19 19 19 19 20 21 21 21 22 22 20 21 22 22 21 21 20 19 18 18 17 16 16 14 14 14 13 12 11 11 11 11 11 10 9 8 7 6 6 5 5 4 3 2 1 1 1 1 2 2 2 2 3 4 4 5 5 5 6 6 6 6 7
0 3 6 6 2 4 7 9 7 1 3 8 9 8 7 5 3 5 11 8 6 7 11 11 12 16 17 15 15 17 17 17 18 19 20 19 20 20 20 21 20 20 22 22 22 21 24 24 22 22 21 21 20 18 17 16 16 15 15 14 14 13 12 11 11 11 11 11 10 8 7 6 6 5 4 4 3 2 1 1 1 2 2 2 2 2 2 3 4 4 4 5 6 7 7 7 8
1 5 5 4 3 3 4 6 6 3 6 9 10 8 6 5 3 7 10 9 7 6 8 9 9 15 19 17 16 18 18 18 18 19 22 22 22 22 22 22 21 21 23 23 22 21 24 25 23 23 22 21 21 19 17 16 15 15 15 14 14 14 13 12 12 12 11 11 10 9 8 7 6 5 4 3 2 2 2 2 2 3 3 2 2 2 2 3 4 4 4 5 5 6 7 7 8
3 3 7 5 3 4 2 5 8 2 7 8 6 6 8 8 5 5 8 12 7 4 3 8 7 10 15 15 15 17 18 18 19 20 22 23 24 26 25 25 23 22 22 23 22 22 24 26 24 23 22 21 21 19 18 17 15 15 15 15 14 13 13 13 12 12 12 12 10 10 8 7 6 5 5 3 3 3 3 3 3 4 4 3 4 3 3 3 4 4 4 5 5 6 7 7 9
3 2 7 7 7 7 4 5 6 4 6 3 7 9 9 7 4 6 11 13 4 3 7 10 10 9 11 13 14 14 14 15 17 19 19 19 21 23 24 25 24 22 23 24 24 24 25 25 24 24 23 22 21 20 19 18 16 15 16 15 15 14 14 14 13 13 13 12 11 10 9 7 6 5 5 4 4 4 3 4 4 4 4 4 4 4 4 4 4 5 5 5 6 7 8 9 10
3 2 5 7 11 9 6 6 1 5 4 4 8 7 4 1 3 5 13 9 2 6 9 10 11 11 10 11 12 13 13 14 15 17 19 19 19 21 22 24 24 25 26 25 26 27 26 25 25 24 24 22 21 20 19 18 17 17 17 16 15 15 15 14 13 13 13 13 12 10 9 7 6 5 5 4 5 4 4 4 4 4 4 4 4 4 4 5 5 6 6 7 8 9 9 10 11
4 5 5 7 10 9 4 3 1 6 4 6 9 6 2 1 1 5 11 4 6 7 9 9 11 12 11 10 11 11 12 13 14 15 16 17 19 21 22 23 25 27 27 26 27 28 26 26 26 25 24 22 21 20 19 18 17 17 17 16 16 15 14 14 13 13 12 12 11 10 9 8 7 7 6 6 5 5 5 5 4 4 3 3 4 4 4 5 6 6 7 8 9 10 10 11 12
5 6 7 8 6 6 3 2 4 4 4 4 6 4 1 2 1 6 6 4 8 8 9 9 9 9 10 10 10 9 9 13 15 14 15 16 19 22 23 25 26 26 27 29 29 28 27 27 26 25 24 23 22 21 19 18 17 16 16 16 17 16 15 14 14 13 12 11 11 10 9 8 8 8 8 7 7 6 6 6 5 5 3 3 4 4 4 5 5 6 7 8 9 10 10 11 12
5 4 6 10 8 6 4 2 4 3 3 4 6 4 2 5 8 5 0 5 7 7 8 8 8 7 8 9 8 8 8 12 15 15 18 18 18 21 23 25 26 26 27 29 29 28 28 27 26 25 25 24 23 22 20 18 16 15 16 16 16 16 15 15 14 13 12 11 10 10 9 9 9 9 9 8 8 8 7 6 6 5 3 3 4 4 4 5 5 5 6 7 8 9 10 10 11
4 3 2 6 8 5 4 1 3 3 3 8 7 2 5 10 13 5 1 6 8 7 7 7 7 7 7 7 7 8 9 11 13 16 19 20 19 21 22 24 27 27 27 27 28 30 29 28 26 26 26 26 25 22 21 19 17 16 16 16 16 16 16 15 15 14 12 11 10 10 10 10 10 10 10 9 8 8 7 6 6 4 3 3 3 4 4 4 5 6 7 7 7 8 9 10 12
3 3 2 3 4 3 7 1 5 4 3 8 8 4 7 11 13 7 4 8 10 8 8 8 7 7 7 7 8 8 9 10 14 17 20 21 22 23 23 24 26 27 27 28 30 31 30 29 28 27 27 27 26 24 22 20 18 17 16 16 16 16 16 15 15 14 13 11 11 11 11 11 11 11 10 10 9 8 8 7 5 4 3 3 3 3 3 4 5 6 7 7 7 8 9 10 12
3 2 3 3 1 5 9 2 7 5 3 5 7 4 7 8 11 7 6 8 9 9 8 8 8 8 8 7 8 8 8 10 13 17 20 21 22 23 24 25 27 29 29 30 31 31 31 30 29 29 28 28 27 25 23 20 19 18 16 16 17 17 16 15 15 15 14 12 11 12 12 12 11 11 10 10 10 9 8 6 5 3 3 3 3 4 4 4 5 6 6 7 8 8 10 11 12
4 1 2 3 2 4 7 4 2 3 3 2 4 4 4 4 7 5 6 9 8 8 8 9 9 9 9 8 7 8 7 8 10 15 20 22 23 24 25 25 28 29 30 30 31 31 32 31 31 31 30 29 28 26 24 22 20 19 17 16 16 17 17 16 15 15 14 13 12 12 13 12 11 10 10 10 10 8 7 6 4 4 4 4 4 4 4 4 5 5 5 6 8 9 10 12 13
4 3 1 3 2 3 5 6 5 4 6 4 6 5 6 6 5 4 5 9 9 9 10 10 9 8 8 7 7 7 7 8 10 14 20 23 23 24 24 25 27 29 29 30 31 32 32 32 32 32 30 29 28 27 26 24 22 20 18 17 17 17 17 16 16 15 15 14 13 12 12 12 11 11 10 10 10 8 7 5 5 5 5 5 4 4 4 4 4 4 5 5 7 8 10 11 13
2 3 2 4 3 3 5 5 5 4 2 5 5 6 11 12 6 3 6 7 10 11 10 9 8 8 8 7 7 7 8 10 11 13 18 21 22 23 24 24 26 28 29 29 30 31 32 32 32 32 31 30 29 28 27 25 24 22 20 19 19 18 17 17 16 16 15 15 14 12 12 12 11 11 11 11 10 9 7 7 6 6 6 5 5 4 3 3 3 4 5 5 6 8 9 10 11
3 1 1 3 4 6 7 5 5 4 3 1 6 7 11 13 10 5 5 5 7 8 6 6 6 7 7 7 8 8 9 11 9 11 16 20 22 23 23 23 25 27 29 29 29 30 31 31 31 31 32 31 30 29 28 27 26 24 23 22 22 21 20 18 18 17 16 15 14 13 13 12 11 11 11 11 10 9 9 8 7 7 7 6 4 3 3 2 2 3 4 5 6 7 8 9 9
2 2 2 4 4 8 8 5 6 2 1 5 5 7 11 12 8 4 6 5 6 7 7 7 7 7 8 9 9 9 10 8 6 10 15 18 20 21 22 22 23 25 27 28 29 29 31 31 31 31 31 31 31 30 30 29 29 26 24 24 24 23 21 20 19 19 17 16 15 14 14 13 12 12 11 11 11 10 9 8 8 7 7 5 4 4 3 3 3 3 3 3 5 5 7 8 9
4 2 3 5 4 7 9 7 7 0 2 5 3 3 11 11 6 3 7 7 9 11 10 10 9 9 8 9 11 10 8 4 4 8 11 16 19 20 21 21 23 25 27 28 29 30 30 31 32 32 32 32 32 32 31 31 30 28 26 26 26 24 23 22 21 21 18 17 16 15 14 14 13 13 13 12 11 10 9 9 8 8 7 6 5 5 4 3 2 2 2 2 3 5 6 7 8
4 2 0 4 3 4 8 7 6 1 3 3 1 2 9 10 7 5 7 9 9 9 10 9 8 9 9 10 10 8 8 5 5 6 8 13 17 18 20 21 24 25 26 28 29 29 30 30 31 31 32 32 32 32 32 32 30 28 27 26 26 25 24 23 22 21 19 18 17 16 15 14 14 13 11 11 10 10 9 9 9 8 7 6 6 5 4 3 2 1 2 3 3 4 6 5 7
3 4 2 5 3 0 4 5 5 3 1 2 2 2 6 6 5 5 6 6 5 5 8 7 6 10 11 9 7 7 8 6 6 6 6 10 13 17 20 21 23 23 24 26 28 29 30 31 31 31 32 33 32 32 31 31 29 27 26 25 25 24 23 23 22 21 20 19 18 17 16 15 14 11 10 10 10 10 10 10 9 8 7 6 6 5 3 2 1 1 3 3 3 3 4 5 6
3 6 5 6 6 5 7 5 6 4 2 1 3 4 6 5 5 6 4 4 5 5 6 8 9 10 8 6 6 6 7 7 7 7 6 8 11 16 20 21 22 23 24 27 29 30 31 31 32 32 33 33 32 32 31 30 27 26 25 22 22 21 20 20 20 19 19 19 19 18 17 16 14 12 11 11 10 11 11 10 9 7 7 6 5 3 2 1 1 1 1 2 2 2 3 4 5
3 5 11 11 9 8 6 4 5 5 3 3 5 4 5 6 6 6 4 5 6 2 4 9 9 6 4 6 8 7 7 7 8 8 8 8 10 14 17 19 21 23 26 29 30 31 31 31 31 32 32 32 32 32 31 30 28 28 26 23 22 20 18 20 21 20 20 20 20 19 19 18 16 13 12 12 12 12 10 9 8 7 6 6 4 3 1 1 1 1 2 2 1 1 2 3 5
3 5 11 11 7 4 4 2 1 1 2 4 4 3 3 6 6 6 6 7 8 4 5 9 8 6 6 7 7 6 7 7 7 8 8 8 10 12 15 20 23 25 27 27 28 29 29 30 31 32 32 32 32 31 31 30 30 30 29 28 27 25 22 21 22 21 20 21 21 20 20 20 17 13 13 14 13 11 10 9 8 7 6 5 4 2 1 2 2 2 2 2 1 2 3 4 6
3 5 7 9 7 5 5 4 4 3 2 4 5 4 2 4 5 6 7 7 9 8 7 8 7 7 7 7 8 7 7 8 8 8 9 10 12 14 17 22 24 25 25 25 27 28 29 29 30 31 31 31 32 31 31 32 32 31 30 28 27 27 27 24 22 21 20 21 21 21 21 19 16 14 14 13 12 11 10 10 9 7 7 5 3 2 1 1 2 3 3 2 2 3 5 7 8
6 5 6 7 6 5 4 5 3 1 2 3 7 3 3 4 6 5 6 5 8 10 10 10 9 7 7 8 9 8 8 8 9 9 10 10 12 17 19 21 21 22 23 24 26 27 27 28 29 30 30 31 31 31 31 32 31 29 28 27 25 25 25 23 22 21 22 22 22 23 22 19 16 15 15 13 12 11 10 10 10 8 6 4 3 2 1 2 3 3 4 4 5 6 7 9 10
4 4 6 5 5 4 3 5 4 3 4 2 6 3 3 3 6 6 6 6 7 9 9 10 10 10 8 8 8 8 7 6 8 7 7 8 12 15 16 16 17 18 20 22 23 24 25 26 27 28 29 30 30 31 31 31 30 27 26 26 24 23 22 21 21 21 23 24 24 24 22 20 18 17 16 14 13 12 11 12 11 8 7 5 4 4 3 3 4 4 5 6 7 8 9 10 12
3 6 5 5 5 5 3 2 4 5 3 5 7 2 4 0 5 4 4 4 6 7 9 10 12 13 11 9 8 7 6 4 4 3 2 4 8 11 12 13 14 16 17 19 21 23 24 26 27 28 28 29 29 29 29 29 28 26 26 25 22 22 22 21 22 23 25 26 26 24 22 21 20 19 18 16 14 13 13 14 12 9 8 7 5 5 4 5 5 5 6 7 8 9 11 12 12
4 4 4 1 4 4 4 4 4 4 2 6 6 2 4 2 2 4 5 6 6 5 7 11 13 14 13 11 8 7 5 3 0 2 3 5 6 8 11 13 15 17 18 20 22 23 24 26 26 27 27 27 28 28 28 28 27 27 27 25 23 23 23 24 26 28 29 30 27 25 24 23 22 20 19 17 16 15 14 14 13 11 9 7 5 5 5 5 5 6 7 8 9 10 12 13 13
4 4 5 2 2 4 2 4 2 2 3 3 4 1 2 1 3 3 6 8 7 6 5 7 9 11 12 12 9 7 5 2 3 4 4 5 5 7 11 14 16 18 20 22 24 25 26 26 26 27 27 28 28 28 28 28 28 28 28 26 25 25 25 27 29 30 32 31 28 27 27 25 23 22 20 19 18 16 15 14 13 11 9 7 6 5 5 6 7 8 9 10 11 12 13 14 14
3 4 4 3 1 2 2 3 2 3 3 3 4 2 1 2 2 2 5 6 6 6 4 4 5 8 10 10 9 7 5 3 4 4 4 5 5 7 10 12 12 15 20 23 25 27 27 27 26 27 27 28 28 28 28 28 29 29 28 26 26 26 26 28 29 30 31 31 30 29 27 25 25 23 22 21 20 18 16 14 12 10 8 7 6 7 7 8 9 10 11 12 14 14 14 15 16
0 4 5 3 4 3 3 3 3 3 2 2 4 1 2 2 2 4 6 7 6 3 4 6 8 9 8 9 9 7 6 4 2 3 4 5 6 9 11 12 16 22 26 26 25 26 27 27 28 29 29 28 28 28 28 28 28 28 26 25 25 25 27 27 28 29 30 31 32 30 28 28 27 24 22 21 21 19 16 13 12 10 8 7 8 9 10 11 11 13 13 14 15 16 16 17 18
1 2 4 1 3 4 1 2 4 3 0 2 2 2 3 3 2 4 5 4 5 8 10 12 13 11 10 10 11 8 7 5 2 1 4 5 7 12 14 17 23 27 26 26 26 26 26 26 27 26 25 24 25 26 27 27 27 26 24 24 24 25 27 27 28 29 30 32 32 31 30 30 28 24 22 22 20 18 16 14 13 11 9 10 11 12 13 13 14 14 15 16 16 16 17 18 19
1 3 2 2 3 6 4 1 1 4 2 2 1 2 3 2 2 6 6 8 11 12 12 12 11 11 11 10 9 9 8 6 4 3 4 5 7 12 16 20 23 21 19 21 22 22 23 22 20 18 14 14 14 15 17 19 22 24 24 24 24 26 27 28 29 30 28 29 29 29 29 29 26 24 23 22 20 18 17 16 14 12 12 13 14 14 14 15 15 16 16 17 17 17 18 19 20
3 2 3 3 2 4 4 1 3 4 1 3 2 0 3 1 2 6 10 12 12 11 10 10 10 11 10 8 7 8 8 7 7 6 5 5 7 12 17 19 18 15 14 18 19 20 21 21 20 19 20 22 20 17 15 15 17 21 23 24 25 27 28 29 30 29 26 26 29 30 30 28 26 23 23 21 19 18 18 17 15 14 15 15 16 16 17 17 17 18 18 18 18 18 19 20 20
4 2 2 1 2 0 1 2 0 1 1 3 4 2 3 3 2 4 8 9 10 10 9 10 10 10 9 8 7 7 7 6 6 7 6 5 7 11 13 13 14 15 16 18 20 22 23 24 24 24 26 29 28 26 25 23 23 26 28 29 29 29 30 31 31 30 28 28 31 32 31 28 25 22 21 21 20 19 19 17 17 17 17 18 18 18 19 19 18 18 18 18 18 18 19 20 20
4 3 3 2 3 2 0 1 2 2 2 2 3 3 2 4 4 3 3 6 7 8 9 8 9 9 8 8 8 7 7 6 6 7 7 7 8 10 10 11 14 16 17 18 21 24 25 26 27 27 27 27 27 28 30 30 31 34 35 35 35 35 34 34 34 33 32 31 32 33 31 28 24 22 21 21 21 21 20 19 19 19 19 20 20 20 20 19 18 18 18 18 19 20 21 21 21
3 4 4 3 2 1 1 1 2 3 3 3 1 2 4 5 3 6 4 5 6 6 8 8 9 10 10 9 10 9 8 7 6 6 8 9 10 11 10 10 13 14 15 18 20 23 24 25 28 29 27 27 29 31 33 35 36 39 41 40 39 38 36 35 34 33 32 32 32 32 29 26 24 22 21 21 21 21 20 20 20 21 21 21 21 20 19 18 17 18 19 20 21 21 21 22 21
3 2 2 1 1 2 2 1 2 1 3 4 3 3 6 5 2 6 4 2 5 6 7 8 9 11 11 11 12 11 10 10 9 7 7 8 10 12 12 11 11 11 13 16 18 20 22 25 28 29 28 30 32 33 35 36 35 35 35 35 34 34 33 32 31 30 30 29 28 27 26 25 23 21 21 21 21 21 21 21 21 23 23 22 20 19 18 17 18 19 20 21 20 20 21 21 22
Wind_Direction
280 286 293 311 325 326 342 67 67 330 74 290 276 251 270 228 187 250 289 256 286 292 150 110 118 118 114 141 156 156 143 143 162 147 189 238 140 169 177 154 151 146 139 139 142 143 147 150 144 137 133 131 132 131 131 127 126 125 121 120 115 110 106 104 108 110 111 110 112 113 113 114 115 116 117 117 115 113 111 106 105 104 105 107 98 97 103 104 102 97 93 91 92 93 92 99 105
286 283 294 310 327 344 310 83 83 333 38 338 281 195 267 289 184 224 235 211 182 194 126 106 91 75 71 94 119 121 82 55 130 142 145 144 138 162 159 152 153 148 142 144 149 150 149 146 141 139 137 137 138 135 131 129 130 126 121 117 111 108 106 106 108 108 109 110 111 111 111 111 114 116 115 114 113 113 113 109 107 105 105 102 97 100 108 108 103 98 96 93 94 95 93 96 98
294 288 306 314 330 37 39 44 82 359 31 319 276 235 262 288 214 210 209 191 147 148 123 105 83 77 75 66 66 92 86 60 104 119 120 141 149 153 152 153 153 148 146 150 153 151 148 144 143 143 141 142 138 135 135 136 133 126 121 114 110 109 107 109 108 110 114 114 114 112 112 112 114 116 116 117 120 122 117 113 111 108 109 104 100 104 112 114 108 103 101 98 97 97 95 94 93
308 311 322 343 16 31 61 33 122 146 299 243 270 266 225 211 208 179 200 182 148 151 124 102 71 39 82 87 65 73 93 87 101 115 137 158 164 153 153 153 150 148 150 152 152 150 147 147 147 143 141 140 136 137 139 136 132 125 119 114 111 109 109 109 110 115 117 118 118 118 119 118 116 115 121 126 129 131 124 121 121 114 111 108 103 106 115 120 115 106 102 101 101 99 97 96 93
340 9 1 57 67 353 84 51 110 137 244 195 240 271 233 210 164 124 152 177 165 160 99 102 83 356 66 88 99 96 142 105 116 135 133 150 155 154 155 153 152 151 151 151 151 151 149 149 146 142 140 138 138 139 137 133 128 123 119 117 115 111 110 111 114 116 115 118 119 120 120 118 119 117 121 130 133 133 128 129 126 109 103 106 103 107 117 121 114 104 102 107 108 104 101 99 97
61 79 40 52 95 189 105 305 277 251 243 173 199 263 246 203 154 119 101 90 38 47 65 89 115 104 69 34 70 107 265 148 143 174 153 148 156 157 155 153 153 151 151 152 155 154 150 147 143 142 142 142 142 139 136 133 129 126 123 120 118 115 114 115 116 116 115 116 118 118 118 118 119 117 117 132 137 135 134 135 131 111 102 102 102 111 119 118 108 102 107 117 120 113 109 108 106
120 107 29 50 42 26 103 234 249 262 252 175 185 274 278 190 156 124 120 103 42 34 39 67 114 107 74 316 95 24 346 173 165 174 163 154 160 159 155 156 152 151 155 157 156 152 147 145 145 147 148 146 143 140 139 137 134 130 125 123 120 119 120 119 115 115 116 114 115 116 116 116 114 114 114 126 134 136 139 141 141 128 110 101 102 107 109 113 111 109 113 124 133 122 114 115 114
135 113 18 90 36 6 99 253 254 224 250 223 194 274 270 173 160 132 134 120 90 64 56 88 100 92 354 5 85 350 10 163 176 166 163 155 160 159 157 160 154 154 160 158 155 151 149 148 149 152 150 147 144 144 144 140 135 129 127 126 123 124 123 123 118 114 116 116 117 116 116 113 112 109 104 109 114 118 119 124 126 116 109 105 108 111 108 111 113 110 107 122 139 131 114 114 118
98 67 83 85 60 344 336 279 274 226 252 267 234 255 229 162 165 129 115 59 111 104 41 185 87 96 159 44 52 322 14 73 146 154 161 157 160 160 159 161 157 159 161 159 157 155 153 152 154 153 151 149 149 148 146 140 134 132 131 129 128 128 128 128 124 119 120 121 121 121 118 112 109 103 99 101 101 102 100 100 103 102 107 107 110 115 116 115 111 104 97 113 139 144 123 110 120
45 29 127 68 81 326 316 294 272 251 248 256 244 231 173 154 152 115 112 96 113 93 24 92 71 100 130 70 15 325 41 123 133 137 151 156 158 158 159 161 160 161 162 162 160 158 155 154 155 154 154 153 153 151 148 144 141 139 135 133 131 130 133 133 128 124 120 118 121 122 119 113 112 105 101 103 103 101 98 98 99 100 106 108 112 117 121 119 109 101 90 100 138 154 146 112 122
37 345 113 84 27 328 301 308 279 274 276 286 281 209 159 146 118 90 110 114 92 107 151 106 88 125 87 66 297 332 139 143 132 132 147 156 157 158 159 160 161 161 162 163 161 160 156 155 157 157 158 157 156 155 155 153 149 145 138 135 131 132 135 135 132 124 119 118 118 117 115 115 117 109 103 105 105 99 97 100 98 97 103 109 112 119 125 113 90 80 67 70 135 155 152 110 110
50 304 86 114 271 257 257 297 283 291 298 304 134 191 149 136 122 125 133 130 131 132 165 144 143 150 76 37 279 120 142 145 141 139 152 158 158 162 162 159 160 162 163 164 163 160 158 158 158 160 161 160 160 161 162 159 154 149 140 135 132 135 137 137 135 126 125 123 116 112 111 116 118 113 110 108 103 99 98 100 101 99 104 109 110 116 120 95 70 63 59 59 81 128 137 110 85
132 173 93 203 214 211 271 282 283 325 311 250 173 176 137 125 134 158 138 120 136 144 203 199 154 125 91 185 225 152 155 161 158 152 158 160 161 165 163 158 160 163 164 167 166 163 163 162 161 163 164 163 166 168 168 164 160 151 142 137 134 138 139 140 139 130 130 127 120 116 115 115 111 111 114 110 102 102 102 102 108 109 109 111 109 110 105 84 65 57 62 63 65 75 98 100 338
176 168 118 255 281 308 281 291 317 21 272 241 158 141 125 108 122 147 124 124 163 178 214 177 142 108 109 161 176 187 171 171 167 161 163 163 165 166 162 158 161 164 166 172 170 168 167 165 166 167 169 170 172 173 173 171 167 159 151 145 142 144 145 146 146 140 137 134 129 126 121 117 110 109 113 115 112 110 110 111 116 118 117 114 114 118 104 80 60 48 57 62 66 70 57 10 342
182 144 103 254 330 338 291 285 324 74 225 240 151 125 95 46 110 120 137 142 191 221 103 117 145 53 174 166 186 202 176 169 167 165 164 165 166 164 161 157 160 165 168 174 173 172 169 169 172 172 175 175 177 177 177 176 174 170 160 154 152 153 154 155 156 150 145 141 137 132 124 122 117 113 115 116 115 113 114 115 118 121 122 120 119 126 101 59 37 21 20 22 23 23 12 357 349
167 97 67 11 329 334 294 250 351 63 272 293 181 114 82 30 108 126 203 140 156 188 104 169 215 10 174 185 191 173 166 165 164 165 163 162 164 162 160 158 161 167 171 176 176 176 173 174 177 177 180 180 182 181 180 180 177 177 170 164 163 161 162 162 161 157 153 150 145 142 134 127 123 119 120 116 114 111 108 106 105 106 109 109 98 83 44 3 350 345 338 333 332 339 343 345 348
85 81 40 338 302 272 221 215 95 84 273 268 209 140 108 108 118 139 186 110 129 143 52 274 316 59 160 271 162 153 157 160 159 160 158 158 161 162 164 164 164 167 173 178 179 179 177 179 180 180 181 185 188 184 183 182 175 179 178 174 172 168 168 166 165 163 160 157 152 150 143 132 125 120 120 118 117 111 106 105 102 99 97 95 84 58 19 351 342 342 340 334 324 326 337 348 350
75 101 31 310 271 250 199 204 194 185 211 198 201 160 136 148 168 171 104 96 113 90 8 349 359 33 76 85 134 145 151 153 155 155 155 158 163 166 168 168 168 171 175 179 183 182 182 183 182 183 183 187 189 186 186 181 176 183 183 180 179 175 172 171 170 169 167 164 159 155 147 137 127 119 114 113 115 112 108 105 101 104 106 106 98 81 38 5 357 360 6 13 15 12 10 17 15
123 134 357 265 231 243 217 209 211 235 222 177 184 177 157 159 164 159 139 146 140 125 317 9 41 49 73 102 130 145 151 151 157 158 158 163 167 170 172 173 173 176 177 179 185 187 186 184 185 187 185 186 187 186 187 184 182 186 186 183 183 181 178 177 176 175 174 171 166 159 151 143 134 124 116 110 105 105 103 94 89 88 94 106 99 78 46 22 19 21 30 43 53 53 43 35 27
190 120 308 250 231 285 292 282 235 240 203 155 167 191 177 169 153 156 153 152 164 185 209 149 141 149 123 128 137 150 155 157 162 163 165 170 173 175 175 176 177 180 181 181 184 189 190 187 188 189 187 186 185 186 186 186 187 187 187 185 185 185 184 182 180 181 178 176 172 162 158 152 143 137 132 125 114 110 95 78 70 52 57 61 46 36 25 19 21 24 25 30 34 31 27 20 15
218 134 227 245 317 325 316 325 302 246 190 155 156 147 161 188 145 139 141 139 232 233 214 195 174 167 154 150 151 159 163 164 168 170 172 174 178 180 181 181 180 183 182 182 183 188 190 189 191 189 190 189 186 188 187 188 190 187 189 188 185 187 189 185 182 185 181 180 177 170 170 165 156 152 155 160 156 152 129 63 33 22 28 24 7 3 14 16 17 20 18 17 10 3 2 0 357
318 222 233 251 322 327 314 323 337 23 147 139 150 157 164 173 125 156 157 160 221 219 214 208 175 163 163 159 158 165 171 172 174 175 175 177 181 183 185 184 182 184 183 185 185 186 188 190 193 191 191 191 189 192 190 192 193 190 190 188 187 187 190 187 183 185 182 182 181 180 180 176 172 167 175 186 190 199 214 283 345 348 352 357 338 335 353 7 11 12 12 9 1 354 353 351 349
289 274 272 259 208 257 312 310 326 50 136 156 169 170 138 131 158 182 179 195 225 232 203 187 175 166 159 155 160 169 176 181 184 182 180 180 182 183 185 185 186 187 186 189 188 186 189 190 193 193 193 192 191 193 193 195 196 193 190 189 189 188 190 187 183 182 181 182 182 183 183 181 183 182 194 206 219 242 264 285 301 310 323 328 315 319 332 346 352 353 355 356 353 349 348 348 346
168 259 295 306 245 249 260 257 290 283 178 175 151 137 140 162 179 162 203 225 243 300 141 133 140 151 149 154 167 176 179 183 186 188 187 184 185 185 185 186 190 191 189 192 190 188 190 190 192 193 195 195 193 193 194 196 196 193 190 192 192 189 190 187 184 181 179 182 182 185 186 189 194 198 211 224 249 264 278 287 293 298 311 314 303 310 321 332 339 341 342 340 342 341 341 341 340
147 237 298 318 306 294 306 283 277 234 205 147 126 154 165 179 151 146 213 235 265 41 102 112 123 139 156 166 173 179 183 188 187 188 192 192 189 187 186 188 189 192 195 194 192 192 192 190 190 192 196 197 197 196 197 196 195 192 192 194 191 190 190 186 186 185 183 185 186 192 195 200 206 213 224 239 258 269 278 281 290 299 308 307 297 306 315 320 325 327 326 329 333 332 333 334 335
215 279 300 302 305 314 330 325 309 165 180 142 153 170 165 161 76 177 228 237 72 92 113 122 137 152 171 175 178 183 186 191 190 188 190 192 191 190 191 189 188 193 198 198 196 196 195 193 192 194 195 197 198 199 200 200 197 194 194 194 193 193 191 188 190 191 191 192 194 200 205 212 219 226 236 247 260 271 278 279 290 298 301 299 297 306 308 310 316 317 319 323 325 325 328 329 331
257 297 284 271 293 307 321 322 184 142 145 164 164 174 203 315 54 218 243 219 120 119 124 138 151 164 176 179 186 187 189 193 192 191 189 189 190 192 193 191 192 195 196 199 200 198 196 196 196 195 196 197 198 199 201 203 203 200 197 195 196 196 193 191 193 196 199 200 202 207 213 220 227 234 241 249 258 267 273 278 283 283 285 283 286 293 295 302 310 316 319 319 318 320 323 326 326
300 312 306 292 300 303 288 201 210 153 123 167 141 139 233 328 265 227 240 160 142 139 141 157 164 174 179 179 188 191 197 195 190 194 195 195 193 193 194 194 195 195 195 198 199 199 198 198 198 196 197 198 198 199 199 202 206 206 203 200 199 197 195 195 195 198 203 205 210 215 221 226 232 239 243 246 254 258 266 274 274 274 281 269 266 277 283 292 303 313 316 315 315 316 319 323 323
320 347 326 307 345 350 297 167 195 177 142 160 114 81 293 243 226 235 327 134 139 140 152 169 174 180 182 182 190 195 200 195 192 200 202 202 201 199 198 197 196 195 197 198 198 199 199 199 197 196 197 200 201 199 199 201 203 207 208 206 202 198 197 198 197 199 204 208 215 223 228 234 239 243 244 247 253 258 263 269 270 274 281 261 257 273 279 285 296 307 311 310 311 314 317 322 323
321 2 20 307 355 358 289 78 154 184 178 167 142 162 248 236 232 240 149 148 135 146 172 182 184 183 185 188 195 202 202 198 200 205 205 203 204 206 204 201 198 197 197 198 198 198 200 200 199 198 198 201 204 203 204 204 202 206 209 208 205 201 198 199 198 199 205 210 218 227 233 238 241 244 245 247 251 256 258 260 265 272 269 256 260 275 280 285 294 301 302 302 305 312 319 325 327
330 336 38 9 14 284 283 322 150 169 205 176 157 218 242 239 240 231 184 162 152 170 188 189 193 189 189 194 198 207 208 207 208 207 207 206 204 206 207 204 201 200 198 199 201 200 200 202 203 202 201 202 205 206 208 207 204 205 208 208 206 204 202 202 201 201 206 212 220 227 233 237 238 240 242 244 247 249 251 257 262 266 262 260 272 280 289 297 300 302 299 302 311 318 323 327 329
7 350 313 347 55 279 302 301 164 169 224 181 159 225 263 251 247 231 173 168 168 179 194 195 198 196 193 199 202 209 213 211 212 211 210 209 206 207 207 207 204 202 201 202 203 202 202 204 205 206 205 205 207 208 209 209 207 207 208 208 208 209 209 208 207 206 207 212 222 227 230 233 235 238 241 242 244 245 250 257 259 261 265 273 284 290 301 307 305 307 309 315 322 326 327 326 328
351 60 260 301 349 317 322 330 233 141 124 208 205 236 278 270 274 265 176 171 172 184 201 202 204 204 200 203 205 209 214 211 213 214 212 209 208 208 208 208 207 206 205 204 204 203 204 205 206 207 207 208 210 212 211 211 211 210 211 211 211 213 214 214 211 209 209 212 221 227 228 230 232 235 239 242 241 243 250 253 253 254 263 277 284 287 294 299 302 308 320 329 330 329 325 322 325
333 22 50 284 298 307 313 316 324 53 105 204 240 258 260 260 294 294 205 176 170 193 207 205 206 209 208 208 208 210 212 215 217 214 210 208 208 208 208 210 211 210 208 207 206 205 206 206 206 207 208 209 212 214 213 212 212 213 215 216 216 217 218 218 215 214 213 212 220 227 228 228 230 232 234 238 236 238 243 241 245 249 259 272 275 280 285 288 295 303 317 329 330 327 320 320 324
48 18 4 308 293 258 265 272 299 353 43 184 200 253 261 265 274 233 219 194 186 203 207 206 209 211 215 213 214 214 214 222 223 214 209 208 207 208 209 209 211 212 210 210 208 207 207 207 207 208 209 210 212 214 213 212 213 215 217 218 219 220 221 221 219 218 216 214 219 224 227 227 226 227 229 230 228 231 234 234 241 248 258 265 270 281 282 280 289 304 318 322 318 314 312 319 324
148 190 218 274 292 273 258 255 265 291 325 222 184 224 249 259 261 220 206 211 214 226 223 217 213 215 222 219 220 216 219 229 222 208 208 207 208 209 209 209 210 212 212 211 209 208 207 206 206 207 209 211 211 211 210 210 213 216 217 218 219 219 220 223 221 220 218 215 218 220 222 223 223 224 225 225 224 226 229 233 239 242 246 249 254 263 255 259 280 300 312 313 309 313 319 324 326
221 264 267 259 261 280 283 271 255 200 334 291 225 225 247 255 263 218 180 195 227 237 234 230 219 217 223 221 224 219 222 232 206 201 207 205 208 208 208 209 208 209 211 211 209 207 207 206 205 206 208 209 208 208 207 209 210 212 214 215 217 215 217 221 221 220 218 215 215 216 217 220 223 223 220 220 219 222 227 231 234 231 228 226 225 226 229 243 262 280 293 315 328 337 334 330 334
240 246 311 299 248 264 282 276 276 181 141 280 300 263 259 259 268 208 170 185 213 216 218 228 226 225 227 223 227 224 224 221 173 194 199 198 204 205 206 207 206 206 207 208 209 208 206 206 205 205 206 207 207 207 206 207 208 209 211 212 212 212 214 218 219 217 215 214 213 212 215 219 223 222 219 217 215 222 229 228 224 216 210 208 209 212 216 227 239 262 285 330 353 353 335 331 347
234 175 37 294 260 269 288 290 303 21 140 264 293 222 255 263 269 236 196 202 217 213 215 227 229 235 238 231 229 225 222 211 188 196 192 194 198 199 203 205 206 208 206 207 208 207 205 205 205 204 205 205 206 208 207 207 208 211 213 213 210 210 212 214 217 217 214 213 212 209 214 217 219 219 218 215 215 222 224 216 210 205 206 207 206 202 190 191 209 257 287 312 331 333 330 338 360
220 170 166 262 263 303 283 295 333 13 59 256 188 212 275 292 311 273 233 234 240 217 223 232 228 232 236 235 234 228 226 220 206 205 194 190 192 196 201 203 205 205 204 205 204 204 204 204 205 204 204 205 206 207 208 209 209 210 213 214 212 210 210 210 211 213 212 210 207 207 212 213 212 214 219 223 221 215 208 204 207 209 213 214 203 191 176 182 245 295 296 305 311 323 338 343 353
234 195 193 236 252 222 219 262 332 358 358 356 75 20 319 332 345 303 298 304 262 227 230 239 233 235 243 247 238 223 220 218 212 210 198 191 193 197 199 200 200 199 201 204 203 203 204 204 205 205 205 205 207 208 208 207 206 204 204 205 205 204 203 202 202 203 204 205 204 206 208 206 205 207 217 227 218 205 204 207 212 216 220 216 200 188 186 208 282 341 333 323 308 312 330 326 337
294 227 205 216 234 238 246 299 2 22 351 326 40 33 298 317 331 293 324 334 286 266 245 248 254 265 265 249 236 217 210 210 207 205 199 197 199 197 197 198 196 198 202 204 203 203 204 204 205 205 206 206 208 209 207 207 204 201 199 196 194 193 192 195 198 199 200 203 206 206 201 198 203 206 212 220 213 207 211 212 213 216 219 213 198 196 189 122 67 39 9 354 349 347 332 323 339
311 243 204 208 211 226 274 295 89 65 289 312 43 106 254 316 320 292 322 322 300 306 257 257 271 274 256 250 245 227 213 207 202 201 197 197 196 193 195 197 196 199 202 202 202 202 203 205 204 205 206 208 209 209 208 207 206 205 204 202 200 198 197 198 201 204 207 208 208 203 194 192 202 210 211 213 210 208 208 206 208 211 211 207 198 186 130 87 50 21 3 358 15 21 4 350 347
250 238 171 173 176 188 216 186 169 217 251 342 14 103 148 307 286 292 327 329 320 322 296 279 271 253 250 256 253 235 217 206 200 200 197 195 195 194 196 198 198 199 199 199 200 201 203 204 204 205 207 208 210 210 210 210 209 208 208 207 206 205 205 206 206 207 210 212 207 200 193 191 199 207 207 205 202 200 200 203 210 211 208 202 192 171 92 36 3 360 352 335 321 334 343 344 346
247 219 136 146 156 171 174 137 137 338 46 335 324 41 97 282 277 313 350 1 336 322 313 307 297 283 265 258 256 243 226 211 205 205 199 195 195 197 198 198 198 196 195 197 199 201 202 203 205 206 207 210 212 213 213 212 212 212 213 214 214 212 211 211 210 207 207 208 203 196 192 191 195 199 200 199 198 200 205 212 215 211 205 196 191 209 268 302 312 320 323 320 313 316 325 331 335
236 141 100 75 69 77 100 115 121 47 42 272 291 360 93 277 296 335 4 12 340 318 315 311 309 311 295 275 271 257 241 223 218 216 200 192 193 195 196 193 192 192 194 196 198 200 202 204 206 208 210 212 214 215 215 214 216 219 221 221 219 214 210 206 204 200 199 200 196 191 190 191 194 196 196 198 201 206 214 215 210 204 204 205 209 225 242 259 272 285 297 304 304 308 312 316 321
143 113 83 40 25 34 43 53 95 70 5 256 265 298 105 341 298 321 350 335 320 315 318 320 322 325 321 309 296 278 267 255 239 225 156 157 176 182 182 180 182 186 192 195 198 202 204 206 208 210 213 215 216 218 217 217 220 224 224 222 221 215 204 196 194 193 194 193 191 191 192 194 196 198 198 200 204 208 210 207 204 204 210 212 212 221 231 244 258 266 276 286 290 293 295 298 303
101 103 81 41 318 5 24 350 43 94 266 255 256 266 94 89 292 322 329 314 321 319 308 319 326 326 326 326 319 305 296 300 41 97 95 107 133 155 164 170 176 182 189 195 199 203 205 208 210 212 214 216 217 220 221 222 223 225 226 227 228 223 208 198 196 195 195 193 192 194 196 196 197 198 200 203 203 202 201 200 203 209 214 214 214 224 237 248 260 266 272 277 279 278 278 282 287
88 104 83 110 298 4 354 310 349 186 231 238 241 259 86 155 215 279 312 320 334 326 294 304 317 322 327 331 328 316 312 356 93 111 117 127 140 154 165 173 177 182 190 196 200 203 206 208 211 213 216 218 219 221 222 224 225 225 227 228 227 222 213 205 202 201 198 196 195 194 195 197 198 199 202 204 201 198 198 200 206 211 213 216 223 236 249 258 264 267 270 271 271 271 272 275 278
91 135 124 149 136 60 274 275 294 255 260 250 249 259 272 264 227 243 282 288 283 285 292 309 334 341 335 331 331 326 332 28 110 129 137 152 161 165 171 171 174 190 200 203 204 204 204 207 210 214 219 221 221 222 223 223 225 227 227 225 222 219 214 209 209 207 202 199 199 196 198 205 206 205 207 205 199 198 201 203 207 212 215 222 234 247 256 261 264 266 268 269 270 272 273 274 276
56 163 139 137 146 145 234 236 204 239 281 284 273 258 168 174 188 228 246 257 257 282 352 17 23 10 352 344 348 347 347 10 83 131 155 171 167 166 170 172 186 201 206 206 207 207 205 207 210 214 219 221 222 223 223 224 225 226 227 225 222 218 216 215 215 212 205 202 200 198 204 211 212 211 211 206 199 200 204 205 209 215 221 230 241 249 256 260 264 266 268 270 272 274 275 275 276
280 139 91 69 171 147 163 189 175 177 338 310 285 239 201 169 219 263 260 296 358 18 15 21 18 8 9 4 353 346 343 345 354 157 177 184 172 174 180 189 201 209 207 204 206 209 208 209 212 215 219 223 224 224 224 223 224 226 230 229 225 221 218 217 216 213 208 205 203 203 207 210 211 213 210 203 199 200 204 209 214 220 227 236 244 250 255 260 264 266 268 270 271 273 275 276 277
286 54 80 236 171 122 116 186 33 72 96 287 278 236 300 348 285 308 352 13 14 15 13 17 12 4 12 9 347 336 334 330 308 255 214 200 187 192 200 205 212 217 210 204 207 210 210 209 210 210 215 226 233 236 233 228 225 226 228 227 225 224 221 219 219 217 211 209 209 210 211 211 212 211 206 201 199 202 207 212 218 224 231 239 246 251 256 260 263 264 265 266 269 271 273 274 275
86 73 201 214 99 89 104 119 4 38 114 280 318 239 300 302 238 321 7 17 7 3 4 6 6 6 7 0 345 329 320 320 307 283 254 231 211 211 215 215 221 227 218 209 210 212 212 210 207 206 212 217 219 224 229 234 236 230 228 228 227 226 225 224 226 225 219 218 218 216 216 217 213 208 203 201 203 207 212 217 223 228 236 242 248 253 257 258 259 261 264 267 270 273 273 273 274
85 147 203 122 104 26 23 99 123 28 197 283 319 311 258 201 204 340 10 10 353 351 360 3 359 357 354 347 344 331 321 322 313 300 285 264 244 236 233 228 228 230 224 214 211 212 213 211 210 214 221 220 215 213 213 220 231 229 227 229 228 227 227 227 227 225 222 222 221 219 219 217 211 207 204 205 209 214 218 223 228 234 240 245 250 253 255 257 259 261 265 269 273 274 274 273 273
20 35 6 30 126 153 78 104 155 171 188 247 311 331 264 220 195 151 55 358 345 349 356 356 347 344 343 341 341 339 332 319 304 298 295 284 274 272 267 253 240 233 228 218 212 213 214 212 213 218 221 219 215 214 212 216 224 225 224 225 225 225 224 225 225 222 221 222 221 219 217 213 209 208 208 211 215 219 223 229 234 240 245 249 252 253 254 256 258 262 267 272 275 274 272 272 273
352 30 17 351 1 75 130 40 88 132 154 179 221 296 262 247 201 141 104 360 339 349 354 348 343 343 343 343 343 343 338 331 322 305 294 289 287 291 291 275 259 249 237 225 218 216 216 215 217 219 218 216 216 217 219 221 222 221 220 221 222 221 220 221 222 222 221 220 218 216 214 212 211 211 212 216 219 223 229 236 242 248 252 253 252 251 251 255 260 267 273 275 275 273 271 272 273
164 101 61 24 354 73 111 314 322 85 129 158 167 260 262 248 162 126 112 353 336 2 6 352 346 345 343 343 344 342 340 341 340 330 313 299 290 293 297 290 274 261 247 236 229 225 222 221 222 220 218 219 221 221 222 224 224 221 220 222 224 222 221 222 221 219 218 216 214 215 214 215 214 214 217 220 225 231 237 242 249 254 254 251 248 247 251 259 268 274 275 274 272 270 269 270 271